Location: Hamilton
(39.3990°N, 84.5610°W)
Time: 05:32:44
(UTC-04:00)

ISS - Visible Passes

Search period start: 17 April 2024 00:00
Search period end: 27 April 2024 00:00
Orbit: 412 x 419 km, 51.6° (Epoch: 17 April)

Date Brightness Start Highest point End Pass type
(mag) Time Alt. Az. Time Alt. Az. Time Alt. Az.
18 Apr -0.8 05:46:27 10° SE 05:47:01 10° SE 05:47:35 10° ESE visible
20 Apr -2.3 05:43:31 13° SSW 05:45:55 30° SE 05:48:53 10° ENE visible
21 Apr -1.5 04:56:52 17° SE 04:57:17 17° SE 04:59:31 10° E visible
22 Apr -3.8 05:42:58 23° SW 05:44:52 87° NW 05:48:13 10° NE visible
23 Apr -3.3 04:56:04 49° SE 04:56:04 49° SE 04:59:17 10° ENE visible
24 Apr -1.1 04:09:04 17° E 04:09:04 17° E 04:10:07 10° ENE visible
24 Apr -2.6 05:41:55 18° W 05:43:53 33° NNW 05:46:57 10° NE visible
25 Apr -3.5 04:54:49 55° NW 04:54:52 55° NW 04:58:09 10° NE visible
26 Apr -1.6 04:07:38 26° NE 04:07:38 26° NE 04:09:13 10° NE visible
26 Apr -1.6 05:40:33 10° WNW 05:42:56 18° NNW 05:45:20 10° NNE visible
